Temperature
13 13 13 13 13 13 13 13 13 13 14 14 14 14 15 15 15 15 15 15 16 16 16 16 16 16 16 16 16 16 16 16 16 16 16 16 16 16
12 12 13 13 13 13 13 13 13 13 13 14 14 14 14 14 15 15 15 15 15 15 16 16 16 16 16 16 16 16 16 16 16 16 16 16 16 16
12 12 13 13 13 13 13 13 13 13 13 13 14 14 14 14 14 14 15 15 15 15 15 15 15 15 15 15 15 16 16 16 16 16 16 16 16 16
13 12 12 12 12 13 13 13 13 13 13 13 13 13 14 14 14 14 14 14 14 15 15 15 15 15 15 15 15 15 15 15 15 15 15 15 15 15
13 13 13 12 12 12 12 13 13 13 13 13 13 13 13 13 13 14 14 14 14 14 14 14 14 14 14 15 15 15 15 15 15 15 15 15 15 15
13 13 13 13 13 12 12 12 12 12 12 13 13 13 13 13 13 13 13 13 14 14 14 14 14 14 14 14 14 14 14 15 15 15 15 15 15 15
13 13 13 13 13 13 12 12 12 12 12 12 12 12 12 12 13 13 13 13 13 13 13 14 14 14 14 14 14 14 14 14 14 14 14 14 14 15
13 13 13 13 13 13 12 12 12 12 12 12 12 12 12 12 12 12 12 12 13 13 13 13 13 13 13 13 14 14 14 14 14 14 14 14 14 14
12 12 12 12 12 12 12 12 12 12 12 12 12 12 12 12 12 12 12 12 12 12 12 13 13 13 13 13 13 13 13 13 13 13 13 13 14 14
12 12 12 12 12 12 12 12 12 12 12 12 12 12 12 12 12 12 12 12 12 12 12 12 12 12 12 12 12 13 12 12 13 13 13 13 13 13
12 12 12 12 12 12 12 12 12 12 12 11 11 11 12 11 11 11 11 11 11 11 11 11 12 12 12 12 12 12 12 12 12 12 12 12 13 13
12 12 12 11 11 11 11 11 11 11 11 11 11 11 11 11 11 11 11 11 11 11 11 11 11 11 11 11 11 11 11 11 12 12 12 12 12 12
12 12 11 11 11 11 11 11 11 11 11 11 11 11 11 11 11 11 11 11 10 10 10 10 10 10 10 11 11 11 11 11 11 11 11 11 11 11
12 12 11 11 11 11 11 11 10 10 10 10 10 10 10 10 10 10 10 10 10 10 10 10 10 10 10 10 10 10 10 10 10 11 11 11 10 10
12 11 11 11 10 10 10 10 10 10 10 10 10 10 10 10 10 9 9 9 9 9 9 9 9 9 9 9 9 9 10 10 10 10 10 10 10 10
11 11 11 10 10 10 10 10 10 10 10 10 10 9 9 9 9 9 9 9 9 9 9 9 9 9 9 9 8 9 8 8 8 9 9 9 9 9
11 11 10 10 10 10 9 9 9 9 9 9 9 9 9 9 9 9 9 9 9 9 9 8 8 8 8 8 8 8 8 8 8 8 8 8 8 8
11 10 10 10 10 9 9 9 9 9 9 8 8 8 8 8 8 8 8 8 8 8 8 8 7 7 7 7 7 7 7 7 7 7 7 7 8 8
10 10 10 10 9 9 9 9 8 8 8 8 8 8 8 7 7 7 7 7 7 7 7 6 6 6 6 6 6 6 6 6 6 6 6 6 7 7
10 10 10 10 9 9 9 8 8 8 8 7 7 7 7 7 7 7 7 6 6 6 6 6 6 5 5 5 5 6 5 5 5 5 6 6 6 6
11 10 10 10 9 9 8 8 8 8 7 7 7 7 7 6 6 6 6 6 6 5 5 5 5 5 4 4 4 5 5 4 4 4 4 5 5 6
11 10 10 9 9 9 8 8 8 7 7 7 7 6 6 6 6 6 5 5 5 5 5 5 4 4 4 4 4 4 5 5 4 4 4 3 3 3
11 10 10 9 9 8 8 8 7 7 7 6 6 6 6 5 5 5 5 5 4 4 4 4 4 4 4 4 3 3 4 4 4 4 4 3 3 3
Wind_Speed
0 0 0 1 0 1 1 2 3 1 1 2 2 2 2 2 3 2 1 0 2 4 4 5 6 7 8 8 9 10 11 12 12 13 13 14 16 16
0 0 0 1 0 0 1 1 2 3 1 2 2 2 2 2 3 2 2 1 0 2 3 4 5 6 7 8 8 8 8 9 11 13 13 13 14 17
1 0 1 0 0 0 1 1 1 2 2 2 1 2 2 2 3 3 2 2 2 1 3 4 5 5 6 6 7 7 7 8 9 11 12 13 13 13
1 1 1 0 0 0 1 1 1 2 2 1 1 2 2 2 2 2 2 2 2 2 1 2 3 4 5 5 6 6 7 8 9 10 11 12 12 12
2 2 2 1 1 1 1 1 1 1 2 2 1 1 1 2 2 2 2 2 2 2 1 0 1 3 3 4 5 6 7 8 8 9 10 10 11 11
2 3 3 3 3 3 2 2 2 2 2 1 0 1 1 2 1 1 1 2 2 2 2 2 1 1 1 3 4 5 6 7 7 8 9 10 10 11
2 3 3 4 5 5 3 3 3 2 2 1 0 0 1 1 1 1 1 2 1 1 2 1 1 1 2 3 3 4 5 5 6 7 7 8 9 10
3 2 2 2 3 4 4 5 6 5 4 2 1 1 2 1 1 1 0 1 1 2 1 2 1 1 2 2 2 2 3 4 4 5 6 7 8 9
3 2 2 2 2 2 2 3 3 4 5 4 3 3 2 2 2 1 0 0 1 2 1 2 1 1 1 2 3 2 2 2 3 4 5 6 8 9
3 3 3 2 2 3 3 2 1 1 2 3 3 2 2 2 2 2 2 1 1 1 1 1 2 1 2 3 4 4 3 3 3 4 5 6 7 8
2 3 3 3 4 5 5 4 2 1 2 4 3 3 3 3 2 2 1 1 1 1 2 1 1 2 2 1 3 5 5 5 6 5 5 5 5 6
2 2 3 4 5 5 5 5 4 2 2 3 4 4 4 4 4 2 2 1 1 1 2 1 1 1 2 1 1 4 5 6 7 6 6 6 5 3
3 2 2 4 4 5 5 4 5 4 3 3 3 3 3 3 3 3 2 1 2 1 1 1 0 1 1 2 2 2 2 4 5 5 6 7 6 3
5 3 3 5 5 5 4 5 6 5 3 3 3 2 2 2 2 3 3 3 3 1 2 1 0 1 1 2 2 2 2 3 4 3 5 6 6 6
5 6 6 6 5 3 4 6 5 4 4 3 3 1 0 0 1 2 3 4 5 5 5 4 1 1 1 1 2 2 3 3 3 4 5 5 4 4
5 6 7 6 5 4 4 4 3 4 4 3 3 2 1 1 2 2 2 2 2 3 5 7 5 2 1 1 2 2 3 3 4 5 5 5 5 5
7 4 3 3 3 3 2 3 3 3 3 3 3 3 2 2 1 2 2 2 2 1 3 4 6 4 1 1 1 2 3 3 4 5 5 6 5 5
9 5 5 5 5 5 4 3 2 3 3 3 3 3 3 2 2 1 2 2 1 1 2 3 4 4 3 2 1 2 2 3 4 5 5 6 7 6
7 6 7 7 6 6 5 4 4 3 3 4 4 3 3 2 2 1 1 1 0 1 2 2 2 2 3 4 4 2 2 4 5 5 5 5 8 9
6 7 7 7 6 6 6 5 4 4 4 4 3 3 3 2 2 1 1 1 0 1 1 2 2 1 2 3 4 4 5 5 5 6 7 7 7 9
8 7 7 7 7 7 6 6 6 5 5 4 4 3 3 3 2 2 1 1 0 1 2 3 4 5 3 2 4 5 5 6 7 7 8 8 8 7
9 9 8 8 8 8 8 7 6 5 5 4 4 4 3 3 3 2 2 1 1 2 3 3 4 3 2 3 6 8 8 8 9 12 12 11 8 7
10 10 9 9 9 8 8 8 8 6 6 5 5 4 4 3 3 2 2 2 1 2 3 3 3 3 3 4 6 8 10 11 9 8 8 11 15 18
Wind_Direction
165 154 192 294 206 176 158 154 149 132 330 319 326 333 351 21 15 19 12 221 202 209 211 214 219 222 225 227 226 224 225 226 225 227 231 236 238 235
193 119 259 284 305 129 143 146 158 164 207 277 287 315 333 5 13 20 3 5 328 231 212 208 215 222 226 229 228 225 229 232 229 227 228 235 241 239
324 193 277 247 138 78 136 140 154 160 197 282 296 322 353 1 358 13 14 11 347 287 229 217 214 217 220 227 230 226 228 233 236 234 232 233 238 241
260 244 273 237 171 125 145 157 173 180 179 229 319 343 343 333 339 350 3 11 1 357 251 214 207 208 217 227 229 229 230 234 239 240 239 237 238 240
226 220 239 206 218 209 189 191 193 166 167 181 273 320 331 336 357 355 357 350 349 351 356 131 196 207 222 234 236 235 235 237 238 240 243 245 244 244
226 219 223 212 215 205 200 203 179 145 136 153 218 323 320 320 9 359 351 354 340 349 358 11 359 293 272 264 258 252 247 245 244 244 245 246 245 246
232 230 233 227 221 207 196 190 172 162 149 145 190 310 314 333 309 303 314 325 332 349 332 346 1 348 328 308 293 272 256 248 247 249 252 250 248 248
225 239 248 249 232 214 206 191 178 172 176 172 188 209 253 249 251 270 284 11 330 345 349 315 323 288 301 317 312 299 272 257 251 251 253 255 257 258
215 224 241 222 204 182 183 177 185 193 185 173 182 213 220 223 201 211 177 179 251 313 353 307 314 292 308 335 344 337 312 286 273 271 265 264 264 263
209 207 209 227 198 169 150 131 129 156 177 168 174 202 207 203 199 192 183 192 296 341 31 324 330 313 326 343 7 19 14 360 333 306 288 279 272 267
218 209 204 210 201 166 147 143 127 81 90 106 113 106 89 88 111 116 106 101 337 343 15 13 330 315 307 320 8 30 30 11 355 341 324 310 295 280
211 224 213 196 192 175 163 161 164 179 126 93 69 60 57 53 68 100 150 151 170 313 348 12 341 351 325 309 347 10 10 1 352 344 337 332 327 304
194 209 211 187 176 170 163 170 179 159 131 118 96 71 56 48 42 43 57 128 147 206 335 9 353 353 284 299 319 347 359 350 343 336 333 332 331 321
194 200 192 168 155 149 152 159 155 138 120 114 105 91 71 47 32 35 46 59 79 104 1 25 150 237 272 289 295 318 324 337 342 335 338 333 325 310
189 180 167 152 138 132 135 141 139 133 131 132 139 143 133 69 48 51 45 52 55 47 35 28 21 273 225 246 285 309 319 332 350 345 336 328 316 316
161 153 141 126 113 114 112 111 118 140 144 146 145 131 94 75 61 56 55 37 49 15 11 18 12 0 281 271 267 295 309 313 328 327 319 312 314 314
147 129 130 134 134 125 112 111 113 121 123 125 128 122 105 84 55 47 63 57 63 6 345 349 350 346 298 249 279 295 309 310 313 320 318 311 304 307
150 160 173 174 175 172 163 153 144 143 142 139 137 138 138 130 102 64 70 84 73 6 341 337 346 355 1 354 260 279 311 309 315 316 312 307 303 305
165 175 181 184 182 178 174 170 170 166 153 148 148 150 146 140 129 115 96 87 67 342 328 331 354 13 354 328 318 307 303 312 314 312 306 299 297 301
183 181 184 183 180 178 176 172 164 155 151 152 153 154 153 150 149 154 155 165 217 298 324 332 335 326 289 289 293 298 306 298 305 307 305 300 292 286
191 187 182 179 178 176 174 170 166 165 163 157 159 162 162 156 159 169 178 196 221 268 297 301 291 299 284 280 288 293 291 289 290 292 301 306 307 305
188 187 183 180 177 174 171 167 165 165 165 163 166 167 167 165 173 181 188 202 237 262 281 293 303 312 302 289 293 297 301 303 298 293 286 278 285 294
188 185 181 178 175 171 169 170 170 172 173 171 170 170 167 168 175 179 191 208 241 276 293 304 312 307 293 287 292 298 302 307 309 305 296 283 276 274
Height
1497 1497 1497 1497 1498 1498 1498 1499 1500 1499 1500 1501 1501 1502 1503 1504 1505 1506 1507 1509 1510 1512 1513 1515 1517 1519 1521 1523 1525 1527 1529 1531 1533 1534 1536 1538 1539 1541
1496 1496 1496 1496 1497 1497 1497 1498 1498 1499 1499 1499 1500 1501 1501 1502 1503 1504 1505 1506 1508 1509 1510 1512 1513 1515 1517 1519 1521 1523 1525 1527 1529 1530 1532 1533 1535 1536
1496 1495 1495 1495 1495 1496 1496 1497 1497 1498 1498 1498 1499 1499 1500 1500 1501 1502 1503 1504 1505 1506 1507 1508 1510 1511 1513 1515 1517 1519 1520 1522 1524 1526 1527 1528 1530 1531
1495 1494 1494 1494 1494 1495 1495 1495 1496 1496 1497 1497 1497 1498 1498 1498 1499 1499 1500 1501 1502 1503 1504 1505 1506 1508 1509 1511 1513 1514 1516 1518 1519 1521 1522 1524 1525 1526
1494 1494 1493 1493 1493 1494 1494 1494 1494 1495 1495 1496 1496 1496 1496 1497 1497 1497 1498 1498 1499 1500 1501 1502 1503 1504 1506 1507 1508 1510 1511 1513 1514 1516 1517 1518 1519 1521
1493 1493 1493 1492 1492 1492 1492 1493 1493 1493 1494 1494 1494 1495 1495 1495 1495 1495 1496 1496 1496 1497 1498 1499 1500 1501 1502 1503 1505 1506 1507 1508 1509 1511 1512 1513 1514 1515
1491 1491 1491 1491 1491 1491 1491 1491 1491 1492 1492 1492 1492 1493 1493 1493 1493 1493 1493 1494 1494 1495 1495 1496 1497 1497 1498 1499 1500 1501 1502 1503 1504 1505 1506 1507 1508 1509
1489 1489 1489 1489 1489 1489 1489 1490 1490 1490 1490 1490 1490 1491 1491 1492 1492 1492 1492 1492 1492 1493 1493 1493 1494 1494 1495 1495 1496 1497 1498 1499 1499 1500 1501 1502 1503 1503
1486 1486 1486 1487 1487 1487 1488 1488 1488 1488 1489 1489 1489 1489 1489 1490 1490 1490 1490 1490 1490 1490 1490 1490 1491 1491 1491 1492 1492 1493 1493 1494 1495 1495 1496 1497 1497 1498
1483 1483 1484 1484 1484 1485 1485 1485 1486 1486 1486 1487 1487 1487 1488 1488 1488 1488 1488 1488 1488 1487 1487 1487 1488 1488 1488 1489 1489 1489 1489 1490 1490 1490 1491 1491 1492 1492
1480 1480 1480 1481 1481 1482 1483 1483 1483 1484 1484 1484 1485 1485 1485 1486 1486 1486 1486 1486 1486 1485 1485 1485 1485 1485 1485 1486 1486 1486 1486 1486 1486 1486 1486 1486 1486 1486
1476 1476 1477 1477 1478 1479 1480 1480 1481 1481 1482 1482 1482 1483 1483 1483 1483 1484 1484 1484 1483 1483 1483 1483 1483 1483 1482 1482 1483 1482 1482 1482 1482 1481 1481 1480 1480 1480
1472 1473 1473 1474 1475 1475 1476 1477 1478 1478 1479 1479 1480 1480 1480 1481 1481 1481 1481 1481 1481 1481 1481 1481 1480 1480 1480 1479 1478 1478 1478 1477 1477 1476 1476 1475 1475 1474
1468 1469 1470 1471 1471 1472 1473 1474 1475 1475 1476 1476 1477 1477 1478 1478 1478 1478 1479 1479 1479 1478 1478 1478 1477 1476 1476 1475 1474 1474 1474 1473 1472 1471 1471 1470 1470 1469
1465 1466 1467 1468 1468 1469 1470 1471 1471 1472 1473 1473 1474 1475 1475 1476 1476 1476 1476 1476 1476 1476 1475 1474 1474 1473 1472 1472 1470 1470 1469 1468 1467 1466 1466 1465 1464 1463
1461 1462 1463 1464 1465 1466 1467 1468 1468 1469 1470 1471 1471 1472 1473 1473 1473 1474 1474 1474 1473 1473 1472 1471 1470 1470 1469 1468 1467 1466 1465 1464 1463 1462 1460 1459 1459 1458
1457 1458 1459 1460 1461 1462 1463 1464 1465 1466 1467 1467 1468 1469 1470 1470 1471 1471 1471 1471 1470 1470 1469 1469 1468 1466 1465 1465 1463 1462 1461 1460 1458 1456 1455 1453 1453 1452
1452 1453 1455 1456 1457 1458 1460 1461 1462 1463 1464 1465 1466 1466 1467 1467 1468 1468 1468 1468 1467 1466 1466 1465 1464 1463 1462 1461 1460 1458 1457 1455 1453 1452 1450 1447 1445 1445
1446 1448 1450 1451 1453 1454 1456 1457 1458 1460 1461 1462 1463 1463 1464 1464 1465 1465 1465 1464 1464 1463 1463 1462 1461 1459 1458 1457 1456 1455 1453 1450 1448 1446 1444 1442 1439 1437
1439 1441 1444 1446 1448 1450 1452 1453 1455 1456 1457 1458 1459 1460 1461 1461 1461 1461 1461 1461 1460 1460 1459 1459 1458 1456 1455 1454 1451 1450 1449 1447 1444 1441 1438 1436 1433 1431
1432 1435 1438 1441 1443 1445 1447 1449 1451 1452 1453 1455 1456 1456 1457 1458 1458 1458 1458 1458 1457 1457 1456 1455 1454 1453 1452 1450 1448 1445 1444 1443 1440 1437 1433 1429 1425 1422
1426 1429 1432 1435 1437 1440 1442 1444 1446 1448 1449 1450 1451 1453 1453 1454 1454 1454 1454 1454 1454 1453 1452 1451 1450 1449 1448 1446 1443 1440 1438 1436 1435 1432 1429 1426 1422 1417
1418 1422 1425 1429 1432 1434 1437 1439 1441 1443 1445 1446 1447 1448 1449 1450 1450 1450 1450 1450 1450 1449 1448 1447 1446 1445 1443 1441 1438 1435 1432 1429 1427 1424 1422 1420 1418 1414